This demonstration page uses our WeatherBlox Daily Observations layout. Learn more.

Left ArrowRight Arrow

34.02893, -84.19858

Hourly Observations for December 21, 2018

Temp ( °F °C ) Dew Point ( °F °C ) Humidity (%) Winds ( mph kmh ) Pressure ( in mb ) Visibility ( mi km ) Precip ( " mm )
12:05 am 00:05 Cloudy with Light Rain 49 9.4 49 9.4 100 100 N 3 6 29.38 995 3 5 0.01 0.25
12:18 am 00:18 Cloudy with Light Rain 49 9.4 49 9.4 100 100 N 3 6 29.38 995 3 4 0.02 0.51
12:26 am 00:26 Cloudy with Light Rain 49 9.4 48 8.9 97 97 NNW 3 6 29.38 995 3 5 0.02 0.51
12:53 am 00:53 Cloudy with Light Rain 49 9.4 49 9.4 100 100 N 5 7 29.33 993 3 5 0.03 0.76
1:28 am 01:28 Cloudy with Light Rain 49 9.4 48 8.9 97 97 NNW 3 6 29.35 994 5 8 0.01 0.25
1:35 am 01:35 Cloudy with Rain 49 9.4 48 8.9 97 97 NW 7 11 29.35 994 2 3 0.06 1.52
1:53 am 01:53 Cloudy with Rain 49 9.4 48 8.9 97 97 WNW 8 13 29.30 992 2 3 0.16 4.06
2:02 am 02:02 Cloudy with Light Rain 49 9.4 48 8.9 97 97 W 5 7 29.29 992 3 5 0.01 0.25
2:16 am 02:16 Cloudy with Rain 49 9.4 47 8.3 93 93 WNW 9 15 29.29 992 3 4 0.04 1.02
2:24 am 02:24 Cloudy with Light Rain 48 8.9 47 8.3 96 96 WNW 9 15 29.32 993 3 5 0.06 1.52
2:34 am 02:34 Cloudy with Light Rain 48 8.9 47 8.3 96 96 WNW 8 13 29.32 993 4 6 0.08 2.03
2:43 am 02:43 Cloudy with Light Rain 48 8.9 47 8.3 96 96 WNW 7 11 29.32 993 4 6 0.09 2.29
2:53 am 02:53 Cloudy with Light Rain 48 8.9 47 8.3 96 96 WNW 8 13 29.29 992 4 6 0.10 2.54
3:00 am 03:00 Cloudy with Rain 48 8.9 47 8.3 96 96 WNW 10 17 29.32 993 3 5 0.02 0.51
3:11 am 03:11 Cloudy with Light Rain 48 8.9 47 8.3 96 96 WNW 8 13 29.32 993 3 5 0.04 1.02
3:21 am 03:21 Cloudy with Rain 48 8.9 47 8.3 96 96 WNW 7 11 29.32 993 3 4 0.07 1.78
3:45 am 03:45 Cloudy with Rain 47 8.3 46 7.8 97 97 NNW 9 15 29.29 992 3 5 0.15 3.81
3:53 am 03:53 Cloudy with Rain 47 8.3 46 7.8 97 97 NNW 7 11 29.27 991 3 5 0.18 4.57
4:16 am 04:16 Cloudy with Light Rain 47 8.3 46 7.8 97 97 NW 10 17 29.26 991 5 8 0.04 1.02
4:28 am 04:28 Cloudy with Light Rain 47 8.3 46 7.8 97 97 NW 13 20 29.26 991 9 14 0.04 1.02
4:53 am 04:53 Cloudy 47 8.3 46 7.8 97 97 WNW 10 17 29.25 991 10 16 0.05 1.27
5:53 am 05:53 Cloudy 47 8.3 45 7.2 93 93 WNW 12 19 29.25 991 10 16 0.00 0.00
6:53 am 06:53 Cloudy 47 8.3 44 6.7 90 90 WNW 15 24 29.28 991 10 16 0.00 0.00
7:00 am 07:00 Cloudy 47 8.3 44 6.7 90 90 NW 13 20 29.29 992 10 16 0.00 0.00
7:53 am 07:53 Cloudy with Light Rain 47 8.3 44 6.7 90 90 WNW 14 22 29.31 993 6 10 0.03 0.76
8:00 am 08:00 Cloudy with Light Rain 46 7.8 44 6.7 93 93 W 9 15 29.32 993 6 10 0.01 0.25
8:11 am 08:11 Cloudy with Light Rain 46 7.8 45 7.2 96 96 W 9 15 29.35 994 5 8 0.02 0.51
8:53 am 08:53 Cloudy with Light Rain 46 7.8 44 6.7 93 93 WNW 14 22 29.34 993 5 8 0.03 0.76
9:00 am 09:00 Cloudy with Light Rain 46 7.8 44 6.7 93 93 WNW 15 24 29.35 994 5 8 0.01 0.25
9:08 am 09:08 Cloudy with Light Rain 46 7.8 44 6.7 93 93 W 15 24 29.35 994 5 8 0.01 0.25
9:53 am 09:53 Cloudy with Light Rain 45 7.2 43 6.1 93 93 WNW 14 22 29.37 995 5 8 0.04 1.02
10:53 am 10:53 Cloudy with Light Rain 45 7.2 42 5.6 90 90 WNW 16 26 29.41 996 5 8 0.03 0.76
4:53 pm 16:53 Cloudy 42 5.6 38 3.3 85 85 WNW 17 28 29.62 1003 8 13 0.00 0.00
5:00 pm 17:00 Cloudy 42 5.6 38 3.3 85 85 W 16 26 29.65 1004 8 13 0.00 0.00
5:53 pm 17:53 Cloudy 41 5 38 3.3 89 89 W 10 17 29.67 1005 9 14 0.00 0.00
6:27 pm 18:27 Cloudy 41 5 38 3.3 89 89 W 18 30 29.74 1007 7 11 0.00 0.00
6:53 pm 18:53 Cloudy 41 5 38 3.3 89 89 W 12 19 29.71 1006 8 13 0.00 0.00
7:53 pm 19:53 Cloudy with Mist and Fog 40 4.4 37 2.8 89 89 W 15 24 29.75 1007 6 10 0.00 0.00
8:53 pm 20:53 Cloudy 40 4.4 36 2.2 86 86 WNW 14 22 29.78 1009 9 14 0.00 0.00
8:56 pm 20:56 Cloudy 40 4.4 36 2.2 86 86 WNW 12 19 29.80 1009 9 14 0.00 0.00
9:53 pm 21:53 Cloudy 40 4.4 35 1.7 83 83 WNW 14 22 29.82 1010 10 16 0.00 0.00
10:00 pm 22:00 Cloudy 40 4.4 34 1.1 79 79 W 15 24 29.83 1010 10 16 0.00 0.00
10:31 pm 22:31 Cloudy 39 3.9 35 1.7 86 86 WNW 15 24 29.85 1011 9 14 0.00 0.00
10:53 pm 22:53 Cloudy 39 3.9 35 1.7 86 86 W 13 20 29.86 1011 7 11 0.00 0.00
11:08 pm 23:08 Cloudy with Mist and Fog 38 3.3 35 1.7 89 89 W 15 24 29.85 1011 6 10 0.00 0.00
11:35 pm 23:35 Cloudy 39 3.9 35 1.7 86 86 W 8 13 29.88 1012 7 11 0.00 0.00
11:53 pm 23:53 Cloudy with Mist and Fog 38 3.3 35 1.7 89 89 W 12 19 29.89 1012 6 10 0.00 0.00

Powered by AerisWeather